GPS BIIR-11

Last updated on Sat Jun 27 2026 00:02:55 GMT+0000 (Coordinated Universal Time)

1 28190U 04009A 26177.37504252 -.00000053 00000+0 00000+0 0 9991 2 28190 54.8219 275.3158 0116472 173.4943 193.2611 2.00554561163139
UTC large
Height (km)
Speed (km/s)
/
Latitude / Longitude
Inclination (degrees)
Orbital Period (minutes)
Azimuth
Elevation
Range (km)
Doppler Factor

Next 0 passes for location: London (51.5072 / 0.1276)

No passes found over London.
GPS BIIR-11